SCP
0 0 0 0 0 0 0 0 0 -0 0 0 0 0 0 0 0 0 0 0 0 0 0 0 0 0 0 0 0 0 0 0 0 -0 0 0 0 -0 0 0 0 0 0 0 0 -0 0 -0 -0
0 0 0 0 0 0 0 0 -0 0 0 0 0 0 0 0 0 0 0 0 0 0 0 0 0 0 0 0 0 0 0 0 0 0 0 0 0 0 0 0 0 0 0 0 -0 0 0 -0 -0
0 0 0 0 0 0 0 0 0 0 0 0 0 0 0 0 0 0 0 0 0 0 0 0 0 0 0 0 0 0 0 0 0 0 0 0 0 0 0 0 0 0 0 0 0 0 0 0 0
0 0 0 0 0 0 0 0 0 0 -0 0 0 0 0 0 0 0 0 0 0 0 0 0 0 0 0 0 0 0 0 0 0 0 0 0 0 0 0 0 0 0 0 0 0 0 0 0 0
0 0 0 0 0 0 0 0 0 0 0 0 0 0 0 0 0 1 1 0 0 0 0 0 0 1 1 0 0 0 0 0 0 0 0 0 0 0 0 0 0 0 0 0 0 0 0 0 0
0 0 0 0 0 0 0 0 0 0 0 0 0 0 0 1 1 1 1 1 1 0 0 0 1 1 1 0 0 0 0 0 0 0 0 0 0 0 0 0 0 0 0 0 0 0 0 0 0
0 0 0 0 0 0 0 0 0 0 0 0 0 0 0 1 2 1 1 1 1 1 1 1 1 1 1 1 0 0 0 0 0 0 0 0 0 0 0 0 0 0 0 0 0 0 0 0 0
0 0 0 0 0 0 0 0 0 0 0 0 0 0 1 0 2 2 2 1 1 1 1 1 1 1 1 1 0 0 0 0 0 0 0 0 0 0 0 0 0 0 0 0 0 0 0 0 0
0 0 0 0 0 0 0 0 0 0 0 0 0 0 0 0 0 1 2 1 1 2 1 1 1 1 1 1 0 0 0 0 0 0 0 0 0 0 0 0 0 0 0 0 0 0 0 0 0
0 0 0 0 0 0 0 0 0 0 0 0 0 0 0 0 0 0 0 1 1 1 1 1 1 1 1 1 1 0 1 0 0 0 0 0 0 0 0 0 0 0 0 0 0 0 0 0 0
0 0 0 0 0 0 0 0 0 0 0 0 0 0 0 0 0 0 0 0 0 1 1 1 1 2 2 2 1 1 1 0 0 0 0 0 0 0 0 0 0 0 0 0 0 0 0 0 0
0 0 0 0 0 0 0 0 0 0 0 0 0 0 0 0 0 0 0 0 0 0 1 0 1 1 1 2 1 1 1 1 0 0 0 0 0 0 0 0 0 0 0 0 0 0 0 0 0
0 0 0 -0 -0 -0 0 0 0 0 0 0 0 0 0 0 0 0 0 0 0 0 0 0 0 1 1 1 1 1 1 0 0 0 0 0 0 0 0 0 0 0 0 0 0 0 0 0 0
0 0 0 -0 -0 0 0 -0 0 -0 0 0 0 0 0 -0 0 0 0 0 0 0 0 0 0 1 1 1 1 1 1 1 0 0 0 0 0 0 0 0 0 0 0 0 0 0 0 0 0
0 -0 0 0 0 0 0 0 0 0 0 0 0 0 0 0 -0 0 0 0 0 0 0 0 0 0 1 1 1 1 1 0 0 0 0 0 0 0 0 0 0 0 0 0 0 0 0 0 0
0 0 0 0 0 0 0 -0 0 0 0 0 0 0 0 0 0 0 0 0 0 0 0 0 0 0 0 0 0 0 0 0 0 0 0 0 0 0 0 0 0 0 0 0 0 0 0 0 0
0 0 0 0 0 0 0 0 0 0 0 0 0 0 0 0 0 0 -0 0 0 0 0 0 0 0 0 0 0 0 0 0 0 0 0 0 0 0 0 0 0 0 0 0 0 0 0 0 0
0 0 0 0 0 0 0 0 0 0 0 0 -0 0 0 0 0 0 0 0 0 0 0 0 0 0 0 1 0 0 0 0 0 0 0 0 0 0 0 0 0 0 0 0 0 0 0 0 0
0 0 0 0 0 0 0 0 0 0 0 0 0 -0 0 0 0 0 0 0 0 0 0 0 0 0 0 1 0 0 0 0 1 0 0 0 0 0 0 0 0 0 0 0 0 0 0 0 0
0 0 0 0 0 0 0 0 0 0 0 0 0 0 0 0 -0 0 0 0 0 0 0 0 0 0 0 0 0 0 0 0 0 0 0 0 0 0 0 0 0 0 0 0 0 0 0 0 0
0 0 0 0 0 0 0 0 0 0 0 0 0 0 0 0 0 0 0 0 0 0 0 0 0 0 0 0 0 0 0 0 0 0 0 0 0 0 0 0 0 0 0 0 0 0 0 0 0
0 0 0 0 0 0 0 0 0 0 0 0 0 0 0 0 0 0 0 0 0 0 0 0 0 0 0 0 0 0 0 0 0 0 0 0 0 0 0 0 0 0 0 0 0 0 0 0 0
0 0 0 0 0 0 0 0 0 0 0 0 0 0 0 0 0 0 0 0 0 0 0 0 0 0 0 0 0 0 0 0 0 0 0 0 0 0 0 0 0 0 0 0 0 0 0 0 0
0 0 0 0 0 0 0 0 0 0 0 -0 0 0 0 0 0 0 -0 0 0 0 0 0 0 0 0 0 0 0 0 0 0 0 0 0 0 0 0 0 0 0 0 0 0 0 0 0 0
0 0 0 0 0 0 0 0 0 0 0 -0 0 -0 0 0 0 0 0 0 0 0 0 0 0 0 0 0 0 0 0 0 0 0 0 0 0 0 0 0 0 0 0 0 0 0 0 0 0
0 0 0 0 0 0 0 0 0 0 0 -0 0 0 0 0 0 0 0 0 0 0 0 0 0 0 0 0 0 0 0 0 0 0 0 0 0 0 0 0 0 0 0 0 0 0 0 0 0
0 0 0 0 0 0 0 0 0 0 0 0 0 0 0 0 0 0 0 0 0 0 0 0 0 0 0 0 0 0 0 0 0 0 0 0 0 0 0 0 0 0 0 0 0 0 0 0 0
0 0 0 0 0 0 0 0 0 -0 0 -0 -0 -0 0 0 0 0 0 0 0 0 0 0 0 0 0 0 0 0 0 0 0 0 0 0 0 0 0 0 0 0 0 0 0 0 0 0 0
0 0 0 0 0 0 0 0 0 0 0 -0 0 -0 -0 -0 0 0 0 0 0 0 0 0 0 0 0 0 0 0 0 0 0 0 0 0 0 0 0 0 0 0 0 0 0 0 0 0 0
0 0 0 0 0 0 0 0 -0 0 0 -0 -0 -0 -0 0 0 0 0 0 0 0 0 0 0 0 0 0 0 0 0 0 0 0 0 0 0 0 0 0 0 0 0 0 0 0 0 0 0
Wind_Speed_500mb
11 10 9 7 4 6 5 11 9 22 11 15 30 8 11 4 7 8 32 16 14 29 39 51 54 50 46 43 45 44 43 42 37 36 34 33 36 35 35 39 37 34 34 36 34 23 33 23 27
6 14 12 6 7 2 9 13 31 26 9 22 13 10 6 9 9 16 33 23 17 25 28 50 54 52 50 45 45 45 44 44 38 36 34 33 32 30 29 32 32 29 29 31 30 26 37 33 28
4 13 10 8 9 13 11 13 31 35 28 35 12 14 12 11 20 20 26 23 22 29 27 38 54 54 52 50 46 45 46 45 42 37 34 32 30 28 27 31 38 36 39 35 34 34 36 34 38
9 6 3 5 18 11 13 8 3 20 31 18 18 9 10 20 17 29 34 29 26 30 29 33 51 54 54 52 50 47 47 46 43 40 35 33 30 28 31 34 39 32 27 35 34 36 34 36 41
8 5 1 7 10 10 7 18 43 24 12 29 30 14 11 25 29 33 34 31 29 35 33 37 46 53 55 53 52 50 49 46 45 41 36 35 33 33 33 34 30 28 34 38 32 33 30 34 37
3 2 2 9 9 3 7 27 45 22 32 26 21 34 11 23 36 38 33 29 29 30 36 39 41 53 57 57 54 53 51 48 47 42 38 38 37 37 34 32 26 31 34 34 30 31 30 32 33
6 5 8 6 6 3 3 47 14 19 31 14 49 12 7 31 31 32 30 32 33 32 38 43 42 53 58 59 57 54 53 51 48 43 41 41 40 38 34 30 27 30 34 33 31 30 29 30 33
6 3 8 6 2 4 16 37 28 33 13 51 25 10 7 18 29 36 36 36 35 32 36 42 44 51 60 62 59 56 55 54 51 46 44 44 42 40 36 31 29 23 23 32 28 30 28 29 31
6 3 6 7 9 14 33 16 33 39 26 53 7 19 23 27 21 28 35 34 38 42 42 44 45 53 60 65 63 58 56 56 53 48 47 47 46 43 40 37 33 25 24 26 29 27 28 26 28
4 5 9 5 8 11 25 31 42 26 44 39 57 22 20 35 22 10 27 33 40 44 45 50 53 55 61 64 64 63 61 60 59 55 53 51 49 45 42 39 35 29 22 20 27 27 27 27 26
6 9 6 16 36 45 32 40 37 28 33 25 38 70 73 63 42 30 10 12 32 39 49 56 58 62 61 64 67 67 66 65 63 60 58 56 54 48 45 44 45 39 29 23 32 32 31 28 28
9 20 19 23 37 31 25 32 31 44 64 55 62 67 78 77 68 51 36 11 17 33 36 49 56 65 66 62 69 72 72 70 67 64 62 61 60 57 51 48 48 44 36 27 30 33 33 31 29
11 12 25 37 56 48 47 45 39 58 86 78 80 82 72 64 74 69 55 37 14 17 24 34 35 55 67 74 71 75 76 75 72 68 64 64 65 65 57 53 50 48 42 31 30 34 36 35 34
13 34 37 45 56 44 35 63 34 88 63 78 56 70 78 56 66 72 67 56 35 19 19 22 30 35 48 63 72 77 80 77 75 71 70 70 68 67 64 59 54 50 41 32 30 34 38 37 38
32 28 30 35 40 14 31 24 24 67 57 65 73 65 73 70 60 66 79 64 54 38 21 17 14 28 33 38 60 69 85 82 78 73 74 73 71 69 67 62 57 53 43 34 32 36 40 41 41
11 8 11 8 5 13 10 50 17 39 44 50 59 62 58 66 58 60 57 66 50 49 40 29 19 20 25 36 37 54 74 97 71 78 76 76 72 70 66 63 57 51 45 40 35 36 41 43 44
9 10 13 16 8 14 19 37 1 15 32 49 48 65 67 64 61 48 54 57 59 59 47 41 36 24 25 29 35 40 53 67 81 80 77 80 74 71 69 64 58 51 49 46 39 35 38 41 43
17 24 19 31 9 19 39 60 49 66 55 61 66 65 69 69 67 48 45 47 54 59 65 57 45 38 30 32 35 33 44 71 81 84 77 79 77 75 74 69 60 54 53 49 42 40 37 38 39
30 35 40 44 47 40 45 48 49 57 55 51 60 61 71 69 75 54 41 37 43 42 45 49 51 41 39 40 38 42 41 70 78 74 78 70 69 72 75 72 67 64 62 52 47 44 42 43 43
27 40 43 31 31 22 34 40 44 47 48 53 54 54 60 69 70 67 50 35 39 45 42 37 42 45 42 41 44 46 45 57 62 72 71 62 72 77 77 73 72 66 61 54 54 51 51 48 49
20 26 29 36 32 22 37 26 17 15 18 31 22 27 37 53 69 72 59 53 49 49 49 49 50 43 43 41 44 43 48 55 66 60 71 74 75 80 81 78 78 74 61 60 57 58 56 53 56
18 16 36 45 33 21 7 20 10 15 18 32 35 43 51 47 35 53 59 55 53 54 48 47 52 53 47 41 45 50 59 58 66 65 68 73 67 82 82 78 74 70 69 68 64 63 60 59 61
27 32 42 47 41 28 18 12 4 12 24 38 35 54 62 61 49 29 45 61 69 51 51 43 41 51 55 52 50 53 56 54 70 70 72 77 75 80 81 88 71 72 74 68 67 68 68 65 63
30 23 39 9 6 5 8 5 7 15 28 36 43 52 50 65 57 42 35 50 50 50 50 41 34 37 43 50 57 56 54 60 58 73 67 72 61 53 79 63 71 78 80 69 77 73 75 73 72
36 20 8 11 7 10 5 6 12 24 29 25 35 56 77 63 51 41 33 42 45 50 45 41 37 38 40 48 55 59 60 48 54 70 76 63 57 56 50 53 68 68 73 74 79 87 87 87 81
17 6 7 12 6 14 0 6 6 28 38 48 51 54 59 41 25 28 25 34 40 44 39 40 40 42 42 43 45 50 50 51 51 70 57 59 65 63 63 66 61 69 74 77 82 86 87 98 89
17 17 16 10 7 5 3 7 7 39 40 46 51 57 59 49 16 15 22 29 34 31 28 31 34 36 31 31 34 36 43 48 43 67 61 59 71 58 47 53 55 55 59 62 62 69 78 87 90
12 13 10 7 12 12 6 6 15 45 45 40 37 45 53 48 27 27 25 15 10 10 11 17 23 25 27 32 33 37 42 33 45 27 34 29 33 55 52 54 50 65 57 73 79 83 84 77 79
19 13 8 5 4 7 11 4 20 35 37 37 31 49 51 38 28 25 21 14 7 4 4 9 16 21 24 29 32 35 39 36 32 46 44 55 47 45 45 52 53 55 55 50 67 70 81 74 85
5 16 9 6 10 5 8 6 27 29 27 40 43 45 40 32 30 24 16 9 6 4 6 11 17 21 25 28 31 34 34 33 34 33 34 34 35 37 34 35 36 40 46 42 44 45 46 47 53
Wind_Direction_500mb
258 227 216 200 54 59 251 250 266 281 312 252 267 222 191 199 176 208 153 173 174 180 180 186 185 184 184 184 179 175 173 171 168 162 158 154 152 152 150 150 152 158 145 151 148 144 129 131 142
211 183 182 125 117 217 253 223 253 243 234 313 220 178 190 213 172 162 167 179 191 186 184 191 191 187 185 188 187 181 178 176 173 169 164 163 160 159 157 162 171 183 153 146 152 141 144 138 143
178 165 156 151 177 189 209 226 226 263 292 288 250 243 213 186 188 186 187 194 191 187 189 195 194 191 187 187 190 187 183 181 177 175 170 169 167 164 158 152 153 150 163 153 151 149 157 147 140
148 135 161 162 220 245 201 239 147 310 313 286 267 242 232 204 191 183 176 187 194 191 188 192 197 193 189 188 188 192 190 184 182 179 176 176 173 168 158 157 168 175 161 161 156 155 147 151 148
141 126 265 257 240 265 269 283 296 281 264 267 280 268 226 188 177 180 183 188 199 196 187 186 199 198 194 192 191 192 194 188 188 184 181 181 176 171 169 170 176 181 163 162 171 169 158 155 157
68 62 141 237 223 221 287 319 297 294 312 320 292 251 241 181 185 187 191 192 199 208 191 191 195 200 196 194 194 193 193 195 193 190 186 186 178 178 177 180 185 188 173 166 169 167 165 165 164
68 89 240 250 229 270 122 355 36 336 329 353 312 269 221 175 190 195 197 188 202 199 196 194 196 199 198 196 196 195 194 196 198 196 192 190 181 182 183 185 185 195 172 170 169 168 168 167 169
17 84 295 267 201 231 15 354 339 356 311 320 341 322 30 252 203 202 192 191 199 203 197 199 200 196 197 198 197 196 198 198 198 201 198 193 186 185 187 188 190 195 176 173 180 174 177 174 173
339 16 264 271 1 305 337 349 329 323 297 318 17 23 3 2 220 229 211 200 202 207 205 201 209 207 203 200 197 197 201 201 199 202 202 195 190 188 189 189 195 189 196 185 178 178 180 183 179
120 158 240 246 301 292 304 320 319 320 312 295 297 273 323 349 357 281 225 203 207 215 204 211 206 213 213 204 199 199 202 202 202 200 202 200 197 193 191 192 197 200 198 188 197 194 187 190 189
342 220 256 299 295 302 302 301 303 288 276 257 284 293 300 310 319 316 296 197 200 217 227 215 211 209 216 212 204 203 204 205 205 201 204 203 203 201 196 195 198 204 212 207 204 200 198 196 196
332 258 264 283 294 303 294 295 286 275 270 283 286 288 296 298 296 298 293 285 183 202 225 229 222 214 212 217 213 207 206 206 206 205 205 204 206 206 203 202 203 207 218 219 216 210 205 203 205
236 271 300 301 296 286 292 274 262 271 280 279 279 283 281 284 286 283 282 276 267 201 221 219 229 225 221 217 216 214 210 208 208 208 209 209 208 208 207 208 209 210 216 221 223 216 212 211 211
285 300 291 288 278 275 273 272 282 275 286 289 282 276 280 276 280 280 271 271 256 240 220 223 220 226 229 227 224 219 217 212 211 211 213 213 214 210 207 214 213 215 217 224 229 225 218 216 218
290 293 289 266 270 260 261 267 234 267 285 283 285 276 282 283 282 273 268 269 264 251 238 222 215 226 233 236 237 229 219 214 216 217 217 218 215 214 211 215 215 220 219 224 225 220 218 218 222
293 294 317 279 234 260 201 268 268 278 281 282 284 282 280 285 293 276 267 258 263 256 250 236 241 236 233 245 251 246 224 209 215 219 220 221 218 218 217 216 216 220 220 224 225 222 219 219 222
348 274 280 302 220 249 203 278 212 286 277 280 280 284 281 279 285 291 263 255 245 248 252 246 244 243 246 243 252 263 251 211 221 226 227 224 219 219 220 220 219 218 223 223 228 228 227 225 225
282 291 270 278 256 281 278 273 281 277 266 270 275 274 276 277 277 286 283 256 242 245 251 244 243 241 248 254 249 256 250 241 209 206 222 224 219 219 219 218 219 221 227 226 231 234 232 233 231
272 276 270 276 282 277 273 274 277 272 267 259 258 261 268 272 277 272 281 241 241 236 236 247 239 236 240 244 248 246 242 235 220 209 215 215 218 217 218 219 216 220 227 234 235 234 231 230 226
272 285 283 281 276 284 282 275 279 278 267 256 257 263 267 274 275 274 262 242 237 249 255 247 244 239 236 231 244 252 259 244 223 211 210 216 223 221 220 219 217 224 227 229 236 232 231 229 224
272 273 283 275 293 270 277 282 255 292 22 13 328 321 307 290 278 275 270 258 255 255 254 249 247 240 231 225 231 243 245 246 230 209 231 225 225 225 220 219 218 225 229 229 239 234 231 233 226
288 254 297 291 299 295 86 289 294 9 18 12 355 340 333 329 323 274 264 255 249 250 253 250 245 242 238 233 231 238 242 242 234 219 219 230 228 230 228 221 220 226 230 240 242 237 236 234 233
277 305 288 283 284 292 277 247 322 12 358 343 336 329 324 318 312 301 270 263 256 253 242 249 250 241 240 240 234 238 240 244 229 231 232 229 229 225 233 223 221 230 233 241 241 241 236 238 240
303 302 297 283 221 269 274 162 31 14 328 327 326 322 314 310 301 285 269 259 249 242 232 240 244 235 237 238 239 243 235 237 242 238 234 227 231 238 244 236 241 234 234 236 245 244 244 243 242
339 331 333 353 10 228 245 267 96 1 349 335 324 321 321 312 293 277 271 243 233 227 224 235 237 244 248 249 243 243 237 238 237 214 222 233 222 224 227 230 233 237 240 240 245 245 245 244 242
325 20 300 304 302 290 263 245 101 4 349 342 335 329 336 337 295 263 250 218 213 210 218 232 240 249 257 257 247 244 242 246 242 228 231 230 227 229 236 228 233 242 246 250 252 252 252 250 244
319 344 278 250 231 280 257 359 265 341 350 345 345 340 344 352 21 84 129 167 184 198 213 231 242 249 247 241 234 232 239 247 260 225 220 230 219 230 230 232 248 254 256 253 254 261 256 254 248
158 310 346 322 331 314 358 67 340 340 341 341 344 340 342 357 39 65 84 110 118 175 218 233 238 234 230 229 229 215 222 212 215 203 232 269 212 232 232 238 252 255 256 255 256 255 257 251 253
356 352 358 276 54 314 316 84 3 342 331 335 338 340 345 358 34 52 60 67 49 41 261 259 241 228 216 216 206 205 210 217 214 198 209 226 221 223 225 239 249 249 259 261 250 245 240 246 248
97 349 322 340 329 319 274 350 3 337 333 338 342 345 355 17 45 53 54 50 28 352 268 232 217 205 200 191 186 177 174 181 183 199 205 219 234 236 243 244 247 249 248 246 246 253 255 261 249
Wind_Speed_850mb
11 10 9 7 4 6 5 11 9 22 11 15 30 8 11 4 7 8 32 16 14 29 39 51 54 50 46 43 45 44 43 42 37 36 34 33 36 35 35 39 37 34 34 36 34 23 33 23 27
6 14 12 6 7 2 9 13 31 26 9 22 13 10 6 9 9 16 33 23 17 25 28 50 54 52 50 45 45 45 44 44 38 36 34 33 32 30 29 32 32 29 29 31 30 26 37 33 28
4 13 10 8 9 13 11 13 31 35 28 35 12 14 12 11 20 20 26 23 22 29 27 38 54 54 52 50 46 45 46 45 42 37 34 32 30 28 27 31 38 36 39 35 34 34 36 34 38
9 6 3 5 18 11 13 8 3 20 31 18 18 9 10 20 17 29 34 29 26 30 29 33 51 54 54 52 50 47 47 46 43 40 35 33 30 28 31 34 39 32 27 35 34 36 34 36 41
8 5 1 7 10 10 7 18 43 24 12 29 30 14 11 25 29 33 34 31 29 35 33 37 46 53 55 53 52 50 49 46 45 41 36 35 33 33 33 34 30 28 34 38 32 33 30 34 37
3 2 2 9 9 3 7 27 45 22 32 26 21 34 11 23 36 38 33 29 29 30 36 39 41 53 57 57 54 53 51 48 47 42 38 38 37 37 34 32 26 31 34 34 30 31 30 32 33
6 5 8 6 6 3 3 47 14 19 31 14 49 12 7 31 31 32 30 32 33 32 38 43 42 53 58 59 57 54 53 51 48 43 41 41 40 38 34 30 27 30 34 33 31 30 29 30 33
6 3 8 6 2 4 16 37 28 33 13 51 25 10 7 18 29 36 36 36 35 32 36 42 44 51 60 62 59 56 55 54 51 46 44 44 42 40 36 31 29 23 23 32 28 30 28 29 31
6 3 6 7 9 14 33 16 33 39 26 53 7 19 23 27 21 28 35 34 38 42 42 44 45 53 60 65 63 58 56 56 53 48 47 47 46 43 40 37 33 25 24 26 29 27 28 26 28
4 5 9 5 8 11 25 31 42 26 44 39 57 22 20 35 22 10 27 33 40 44 45 50 53 55 61 64 64 63 61 60 59 55 53 51 49 45 42 39 35 29 22 20 27 27 27 27 26
6 9 6 16 36 45 32 40 37 28 33 25 38 70 73 63 42 30 10 12 32 39 49 56 58 62 61 64 67 67 66 65 63 60 58 56 54 48 45 44 45 39 29 23 32 32 31 28 28
9 20 19 23 37 31 25 32 31 44 64 55 62 67 78 77 68 51 36 11 17 33 36 49 56 65 66 62 69 72 72 70 67 64 62 61 60 57 51 48 48 44 36 27 30 33 33 31 29
11 12 25 37 56 48 47 45 39 58 86 78 80 82 72 64 74 69 55 37 14 17 24 34 35 55 67 74 71 75 76 75 72 68 64 64 65 65 57 53 50 48 42 31 30 34 36 35 34
13 34 37 45 56 44 35 63 34 88 63 78 56 70 78 56 66 72 67 56 35 19 19 22 30 35 48 63 72 77 80 77 75 71 70 70 68 67 64 59 54 50 41 32 30 34 38 37 38
32 28 30 35 40 14 31 24 24 67 57 65 73 65 73 70 60 66 79 64 54 38 21 17 14 28 33 38 60 69 85 82 78 73 74 73 71 69 67 62 57 53 43 34 32 36 40 41 41
11 8 11 8 5 13 10 50 17 39 44 50 59 62 58 66 58 60 57 66 50 49 40 29 19 20 25 36 37 54 74 97 71 78 76 76 72 70 66 63 57 51 45 40 35 36 41 43 44
9 10 13 16 8 14 19 37 1 15 32 49 48 65 67 64 61 48 54 57 59 59 47 41 36 24 25 29 35 40 53 67 81 80 77 80 74 71 69 64 58 51 49 46 39 35 38 41 43
17 24 19 31 9 19 39 60 49 66 55 61 66 65 69 69 67 48 45 47 54 59 65 57 45 38 30 32 35 33 44 71 81 84 77 79 77 75 74 69 60 54 53 49 42 40 37 38 39
30 35 40 44 47 40 45 48 49 57 55 51 60 61 71 69 75 54 41 37 43 42 45 49 51 41 39 40 38 42 41 70 78 74 78 70 69 72 75 72 67 64 62 52 47 44 42 43 43
27 40 43 31 31 22 34 40 44 47 48 53 54 54 60 69 70 67 50 35 39 45 42 37 42 45 42 41 44 46 45 57 62 72 71 62 72 77 77 73 72 66 61 54 54 51 51 48 49
20 26 29 36 32 22 37 26 17 15 18 31 22 27 37 53 69 72 59 53 49 49 49 49 50 43 43 41 44 43 48 55 66 60 71 74 75 80 81 78 78 74 61 60 57 58 56 53 56
18 16 36 45 33 21 7 20 10 15 18 32 35 43 51 47 35 53 59 55 53 54 48 47 52 53 47 41 45 50 59 58 66 65 68 73 67 82 82 78 74 70 69 68 64 63 60 59 61
27 32 42 47 41 28 18 12 4 12 24 38 35 54 62 61 49 29 45 61 69 51 51 43 41 51 55 52 50 53 56 54 70 70 72 77 75 80 81 88 71 72 74 68 67 68 68 65 63
30 23 39 9 6 5 8 5 7 15 28 36 43 52 50 65 57 42 35 50 50 50 50 41 34 37 43 50 57 56 54 60 58 73 67 72 61 53 79 63 71 78 80 69 77 73 75 73 72
36 20 8 11 7 10 5 6 12 24 29 25 35 56 77 63 51 41 33 42 45 50 45 41 37 38 40 48 55 59 60 48 54 70 76 63 57 56 50 53 68 68 73 74 79 87 87 87 81
17 6 7 12 6 14 0 6 6 28 38 48 51 54 59 41 25 28 25 34 40 44 39 40 40 42 42 43 45 50 50 51 51 70 57 59 65 63 63 66 61 69 74 77 82 86 87 98 89
17 17 16 10 7 5 3 7 7 39 40 46 51 57 59 49 16 15 22 29 34 31 28 31 34 36 31 31 34 36 43 48 43 67 61 59 71 58 47 53 55 55 59 62 62 69 78 87 90
12 13 10 7 12 12 6 6 15 45 45 40 37 45 53 48 27 27 25 15 10 10 11 17 23 25 27 32 33 37 42 33 45 27 34 29 33 55 52 54 50 65 57 73 79 83 84 77 79
19 13 8 5 4 7 11 4 20 35 37 37 31 49 51 38 28 25 21 14 7 4 4 9 16 21 24 29 32 35 39 36 32 46 44 55 47 45 45 52 53 55 55 50 67 70 81 74 85
5 16 9 6 10 5 8 6 27 29 27 40 43 45 40 32 30 24 16 9 6 4 6 11 17 21 25 28 31 34 34 33 34 33 34 34 35 37 34 35 36 40 46 42 44 45 46 47 53
Wind_Direction_850mb
258 227 216 200 54 59 251 250 266 281 312 252 267 222 191 199 176 208 153 173 174 180 180 186 185 184 184 184 179 175 173 171 168 162 158 154 152 152 150 150 152 158 145 151 148 144 129 131 142
211 183 182 125 117 217 253 223 253 243 234 313 220 178 190 213 172 162 167 179 191 186 184 191 191 187 185 188 187 181 178 176 173 169 164 163 160 159 157 162 171 183 153 146 152 141 144 138 143
178 165 156 151 177 189 209 226 226 263 292 288 250 243 213 186 188 186 187 194 191 187 189 195 194 191 187 187 190 187 183 181 177 175 170 169 167 164 158 152 153 150 163 153 151 149 157 147 140
148 135 161 162 220 245 201 239 147 310 313 286 267 242 232 204 191 183 176 187 194 191 188 192 197 193 189 188 188 192 190 184 182 179 176 176 173 168 158 157 168 175 161 161 156 155 147 151 148
141 126 265 257 240 265 269 283 296 281 264 267 280 268 226 188 177 180 183 188 199 196 187 186 199 198 194 192 191 192 194 188 188 184 181 181 176 171 169 170 176 181 163 162 171 169 158 155 157
68 62 141 237 223 221 287 319 297 294 312 320 292 251 241 181 185 187 191 192 199 208 191 191 195 200 196 194 194 193 193 195 193 190 186 186 178 178 177 180 185 188 173 166 169 167 165 165 164
68 89 240 250 229 270 122 355 36 336 329 353 312 269 221 175 190 195 197 188 202 199 196 194 196 199 198 196 196 195 194 196 198 196 192 190 181 182 183 185 185 195 172 170 169 168 168 167 169
17 84 295 267 201 231 15 354 339 356 311 320 341 322 30 252 203 202 192 191 199 203 197 199 200 196 197 198 197 196 198 198 198 201 198 193 186 185 187 188 190 195 176 173 180 174 177 174 173
339 16 264 271 1 305 337 349 329 323 297 318 17 23 3 2 220 229 211 200 202 207 205 201 209 207 203 200 197 197 201 201 199 202 202 195 190 188 189 189 195 189 196 185 178 178 180 183 179
120 158 240 246 301 292 304 320 319 320 312 295 297 273 323 349 357 281 225 203 207 215 204 211 206 213 213 204 199 199 202 202 202 200 202 200 197 193 191 192 197 200 198 188 197 194 187 190 189
342 220 256 299 295 302 302 301 303 288 276 257 284 293 300 310 319 316 296 197 200 217 227 215 211 209 216 212 204 203 204 205 205 201 204 203 203 201 196 195 198 204 212 207 204 200 198 196 196
332 258 264 283 294 303 294 295 286 275 270 283 286 288 296 298 296 298 293 285 183 202 225 229 222 214 212 217 213 207 206 206 206 205 205 204 206 206 203 202 203 207 218 219 216 210 205 203 205
236 271 300 301 296 286 292 274 262 271 280 279 279 283 281 284 286 283 282 276 267 201 221 219 229 225 221 217 216 214 210 208 208 208 209 209 208 208 207 208 209 210 216 221 223 216 212 211 211
285 300 291 288 278 275 273 272 282 275 286 289 282 276 280 276 280 280 271 271 256 240 220 223 220 226 229 227 224 219 217 212 211 211 213 213 214 210 207 214 213 215 217 224 229 225 218 216 218
290 293 289 266 270 260 261 267 234 267 285 283 285 276 282 283 282 273 268 269 264 251 238 222 215 226 233 236 237 229 219 214 216 217 217 218 215 214 211 215 215 220 219 224 225 220 218 218 222
293 294 317 279 234 260 201 268 268 278 281 282 284 282 280 285 293 276 267 258 263 256 250 236 241 236 233 245 251 246 224 209 215 219 220 221 218 218 217 216 216 220 220 224 225 222 219 219 222
348 274 280 302 220 249 203 278 212 286 277 280 280 284 281 279 285 291 263 255 245 248 252 246 244 243 246 243 252 263 251 211 221 226 227 224 219 219 220 220 219 218 223 223 228 228 227 225 225
282 291 270 278 256 281 278 273 281 277 266 270 275 274 276 277 277 286 283 256 242 245 251 244 243 241 248 254 249 256 250 241 209 206 222 224 219 219 219 218 219 221 227 226 231 234 232 233 231
272 276 270 276 282 277 273 274 277 272 267 259 258 261 268 272 277 272 281 241 241 236 236 247 239 236 240 244 248 246 242 235 220 209 215 215 218 217 218 219 216 220 227 234 235 234 231 230 226
272 285 283 281 276 284 282 275 279 278 267 256 257 263 267 274 275 274 262 242 237 249 255 247 244 239 236 231 244 252 259 244 223 211 210 216 223 221 220 219 217 224 227 229 236 232 231 229 224
272 273 283 275 293 270 277 282 255 292 22 13 328 321 307 290 278 275 270 258 255 255 254 249 247 240 231 225 231 243 245 246 230 209 231 225 225 225 220 219 218 225 229 229 239 234 231 233 226
288 254 297 291 299 295 86 289 294 9 18 12 355 340 333 329 323 274 264 255 249 250 253 250 245 242 238 233 231 238 242 242 234 219 219 230 228 230 228 221 220 226 230 240 242 237 236 234 233
277 305 288 283 284 292 277 247 322 12 358 343 336 329 324 318 312 301 270 263 256 253 242 249 250 241 240 240 234 238 240 244 229 231 232 229 229 225 233 223 221 230 233 241 241 241 236 238 240
303 302 297 283 221 269 274 162 31 14 328 327 326 322 314 310 301 285 269 259 249 242 232 240 244 235 237 238 239 243 235 237 242 238 234 227 231 238 244 236 241 234 234 236 245 244 244 243 242
339 331 333 353 10 228 245 267 96 1 349 335 324 321 321 312 293 277 271 243 233 227 224 235 237 244 248 249 243 243 237 238 237 214 222 233 222 224 227 230 233 237 240 240 245 245 245 244 242
325 20 300 304 302 290 263 245 101 4 349 342 335 329 336 337 295 263 250 218 213 210 218 232 240 249 257 257 247 244 242 246 242 228 231 230 227 229 236 228 233 242 246 250 252 252 252 250 244
319 344 278 250 231 280 257 359 265 341 350 345 345 340 344 352 21 84 129 167 184 198 213 231 242 249 247 241 234 232 239 247 260 225 220 230 219 230 230 232 248 254 256 253 254 261 256 254 248
158 310 346 322 331 314 358 67 340 340 341 341 344 340 342 357 39 65 84 110 118 175 218 233 238 234 230 229 229 215 222 212 215 203 232 269 212 232 232 238 252 255 256 255 256 255 257 251 253
356 352 358 276 54 314 316 84 3 342 331 335 338 340 345 358 34 52 60 67 49 41 261 259 241 228 216 216 206 205 210 217 214 198 209 226 221 223 225 239 249 249 259 261 250 245 240 246 248
97 349 322 340 329 319 274 350 3 337 333 338 342 345 355 17 45 53 54 50 28 352 268 232 217 205 200 191 186 177 174 181 183 199 205 219 234 236 243 244 247 249 248 246 246 253 255 261 249